TimeCEST,TemperatureF,Dew PointF,Humidity,Sea Level PressureIn,VisibilityMPH,Wind Direction,Wind SpeedMPH,Gust SpeedMPH,PrecipitationIn,Events,Conditions,WindDirDegrees,DateUTC
12:00 AM,50.0,46.4,87,29.95,-9999.0,East,4.6,-,N/A,,Clear,100,2013-10-22 22:00:00
12:30 AM,51.8,48.2,88,29.95,-9999.0,ESE,6.9,-,N/A,,Clear,110,2013-10-22 22:30:00
1:00 AM,51.8,48.2,88,29.95,-9999.0,ESE,5.8,-,N/A,,Clear,110,2013-10-22 23:00:00
1:16 AM,51.8,50.0,94,29.92,5.6,ESE,4.6,-,N/A,,Mostly Cloudy,110,2013-10-22 23:16:00
1:30 AM,51.8,50.0,94,29.92,5.0,ESE,3.5,-,N/A,,Mostly Cloudy,110,2013-10-22 23:30:00
2:00 AM,49,47,92,29.94,5,ESE,4.5,,,,Mist,110,2013-10-23 00:00:00
2:00 AM,50.0,48.2,94,29.92,5.0,East,3.5,-,N/A,,Scattered Clouds,90,2013-10-23 00:00:00
2:30 AM,51.8,50.0,94,29.92,4.3,East,3.5,-,N/A,,Mostly Cloudy,90,2013-10-23 00:30:00
3:00 AM,50.0,48.2,94,29.92,3.7,East,4.6,-,N/A,Fog,Fog,100,2013-10-23 01:00:00
3:30 AM,50.0,48.2,94,29.92,3.1,East,4.6,-,N/A,Fog,Fog,100,2013-10-23 01:30:00
4:00 AM,51.8,50.0,94,29.89,3.7,ESE,3.5,-,N/A,,Mostly Cloudy,120,2013-10-23 02:00:00
4:30 AM,51.8,51.8,100,29.89,3.7,East,3.5,-,N/A,,Mostly Cloudy,100,2013-10-23 02:30:00
5:00 AM,51.8,50.0,94,29.89,2.8,East,6.9,-,N/A,,Mostly Cloudy,90,2013-10-23 03:00:00
5:05 AM,51.8,50.0,94,29.89,1.9,East,8.1,-,N/A,,Mostly Cloudy,90,2013-10-23 03:05:00
5:13 AM,50.0,48.2,94,29.89,0.7,East,8.1,-,N/A,,Mostly Cloudy,90,2013-10-23 03:13:00
5:21 AM,50.0,50.0,100,29.89,0.5,East,5.8,-,N/A,Fog,Fog,90,2013-10-23 03:21:00
5:30 AM,51.8,50.0,94,29.89,0.4,East,4.6,-,N/A,Fog,Fog,100,2013-10-23 03:30:00
5:48 AM,51.8,51.8,100,29.89,-9999.0,East,4.6,-,N/A,Fog,Fog,100,2013-10-23 03:48:00
6:00 AM,51.8,51.8,100,29.89,0.3,East,5.8,-,N/A,Fog,Fog,100,2013-10-23 04:00:00
6:30 AM,51.8,51.8,100,29.89,0.3,East,4.6,-,N/A,Fog,Fog,100,2013-10-23 04:30:00
6:36 AM,51.8,51.8,100,29.86,0.2,East,6.9,-,N/A,Fog,Fog,100,2013-10-23 04:36:00
7:00 AM,51.8,51.8,100,29.86,0.3,East,5.8,-,N/A,Fog,Fog,100,2013-10-23 05:00:00
7:30 AM,51.8,51.8,100,29.89,0.2,East,4.6,-,N/A,Fog,Fog,80,2013-10-23 05:30:00
8:00 AM,52,51,95,29.90,0,,2.2,,,Fog,Heavy Fog,,2013-10-23 06:00:00
8:00 AM,51.8,51.8,100,29.89,0.2,Variable,2.3,-,N/A,Fog,Fog,0,2013-10-23 06:00:00
8:10 AM,51.8,51.8,100,29.89,0.3,East,4.6,-,N/A,,Mostly Cloudy,80,2013-10-23 06:10:00
8:14 AM,51.8,51.8,100,29.89,0.6,East,3.5,-,N/A,Fog,Patches of Fog,90,2013-10-23 06:14:00
8:18 AM,51.8,51.8,100,29.89,0.7,East,4.6,-,N/A,Fog,Patches of Fog,100,2013-10-23 06:18:00
8:21 AM,51.8,51.8,100,29.89,0.9,ESE,4.6,-,N/A,Fog,Mostly Cloudy,110,2013-10-23 06:21:00
8:30 AM,51.8,51.8,100,29.89,1.2,ESE,5.8,-,N/A,Fog,Mostly Cloudy,120,2013-10-23 06:30:00
8:39 AM,53.6,51.8,94,29.89,1.6,ESE,5.8,-,N/A,,Mostly Cloudy,110,2013-10-23 06:39:00
8:46 AM,53.6,51.8,94,29.89,2.2,ESE,6.9,-,N/A,,Mostly Cloudy,110,2013-10-23 06:46:00
9:00 AM,53.6,53.6,100,29.89,2.5,ESE,6.9,-,N/A,,Mostly Cloudy,110,2013-10-23 07:00:00
9:15 AM,53.6,53.6,100,29.89,3.7,Variable,2.3,-,N/A,,Mostly Cloudy,0,2013-10-23 07:15:00
9:30 AM,55.4,53.6,94,29.89,3.7,Variable,2.3,-,N/A,,Mostly Cloudy,0,2013-10-23 07:30:00
10:00 AM,55.4,53.6,94,29.89,4.3,SE,6.9,-,N/A,,Mostly Cloudy,140,2013-10-23 08:00:00
10:30 AM,57.2,55.4,94,29.89,6.2,SSE,5.8,-,N/A,,Mostly Cloudy,150,2013-10-23 08:30:00
11:00 AM,57.2,53.6,88,29.89,6.2,WSW,4.6,-,N/A,,Mostly Cloudy,240,2013-10-23 09:00:00
11:30 AM,59.0,53.6,82,29.89,6.2,SW,6.9,-,N/A,,Mostly Cloudy,230,2013-10-23 09:30:00
12:00 PM,59.0,53.6,82,29.89,6.2,SW,4.6,-,N/A,,Mostly Cloudy,220,2013-10-23 10:00:00
12:30 PM,59.0,51.8,77,29.89,6.2,SSW,3.5,-,N/A,,Mostly Cloudy,200,2013-10-23 10:30:00
1:00 PM,59.0,53.6,82,29.89,6.2,Variable,2.3,-,N/A,,Mostly Cloudy,0,2013-10-23 11:00:00
1:30 PM,60.8,53.6,77,29.89,6.2,Variable,2.3,-,N/A,,Mostly Cloudy,0,2013-10-23 11:30:00
2:00 PM,61,53,67,29.89,16,South,2.2,,,,Partly Cloudy,190,2013-10-23 12:00:00
2:00 PM,62.6,53.6,72,29.89,6.2,Variable,2.3,-,N/A,,Mostly Cloudy,0,2013-10-23 12:00:00
2:30 PM,60.8,53.6,77,29.92,6.2,WSW,6.9,-,N/A,,Mostly Cloudy,250,2013-10-23 12:30:00
3:00 PM,60.8,53.6,77,29.92,6.2,WNW,5.8,-,N/A,,Scattered Clouds,300,2013-10-23 13:00:00
3:30 PM,60.8,53.6,77,29.92,6.2,West,3.5,-,N/A,,Partly Cloudy,270,2013-10-23 13:30:00
4:00 PM,59.0,55.4,88,29.92,-9999.0,WNW,5.8,-,N/A,,Clear,290,2013-10-23 14:00:00
4:30 PM,59.0,53.6,82,29.92,-9999.0,Variable,2.3,-,N/A,,Clear,0,2013-10-23 14:30:00
5:01 PM,59.0,53.6,82,29.95,-9999.0,SSW,5.8,-,N/A,,Clear,210,2013-10-23 15:01:00
5:05 PM,57.2,53.6,88,29.95,6.2,SSW,8.1,-,N/A,Rain,Light Rain,210,2013-10-23 15:05:00
5:30 PM,57.2,53.6,88,29.92,6.2,SSW,8.1,-,N/A,Rain,Light Rain,200,2013-10-23 15:30:00
6:00 PM,57.2,53.6,88,29.92,6.2,South,6.9,-,N/A,Rain,Light Rain,180,2013-10-23 16:00:00
6:30 PM,57.2,53.6,88,29.95,-9999.0,South,9.2,-,N/A,,Clear,190,2013-10-23 16:30:00
7:00 PM,57.2,53.6,88,29.95,-9999.0,South,8.1,-,N/A,,Clear,180,2013-10-23 17:00:00
7:30 PM,57.2,53.6,88,29.95,-9999.0,South,8.1,-,N/A,,Clear,170,2013-10-23 17:30:00
8:00 PM,57,53,82,29.95,9,South,6.7,,,Rain,Light Rain,180,2013-10-23 18:00:00
8:00 PM,57.2,53.6,88,29.95,6.2,South,8.1,-,N/A,Rain,Light Rain,170,2013-10-23 18:00:00
8:09 PM,57.2,53.6,88,29.95,-9999.0,South,6.9,-,N/A,,Clear,170,2013-10-23 18:09:00
8:25 PM,57.2,53.6,88,29.95,6.2,South,5.8,-,N/A,Rain,Light Rain,170,2013-10-23 18:25:00
8:30 PM,57.2,53.6,88,29.95,6.2,South,5.8,-,N/A,Rain,Light Rain,170,2013-10-23 18:30:00
9:00 PM,57.2,53.6,88,29.95,-9999.0,South,6.9,-,N/A,,Clear,180,2013-10-23 19:00:00
9:03 PM,57.2,53.6,88,29.95,6.2,South,6.9,-,N/A,Rain,Light Rain,180,2013-10-23 19:03:00
9:30 PM,57.2,53.6,88,29.98,6.2,SSW,5.8,-,N/A,Rain,Light Rain,210,2013-10-23 19:30:00
10:00 PM,55.4,51.8,88,29.98,-9999.0,SSW,6.9,-,N/A,,Clear,210,2013-10-23 20:00:00
10:30 PM,53.6,51.8,94,29.98,-9999.0,SW,6.9,-,N/A,,Clear,230,2013-10-23 20:30:00
11:00 PM,55.4,51.8,88,29.98,-9999.0,SW,9.2,-,N/A,,Clear,220,2013-10-23 21:00:00
11:30 PM,53.6,51.8,94,29.98,-9999.0,WSW,10.4,-,N/A,,Clear,240,2013-10-23 21:30:00